Location: Taschereau
(48.6670°N, 78.7000°W)
Time: 15:14:07
(UTC-04:00)

ISS - Pass Details

Date: 01 July 2019
Orbit: 409 x 418 km, 51.6° (Epoch: 17 July)

Event Time Altitude Azimuth Distance (km) Brightness Sun altitude
Exits shadow 04:22:07 - 189° (S) 1,749 -1.1 -7.4°
Reaches altitude 10° 04:23:04 10° 179° (S) 1,470 -1.4 -7.3°
Maximum altitude 04:25:13 16° 138° (SE) 1,145 -1.6 -7.0°
Drops below altitude 10° 04:27:19 10° 98° (E) 1,459 -0.5 -6.8°
Sets 04:29:59 0° 76° (ENE) 2,339 1.1 -6.5°
